Location: ???????
(55.3754°N, 39.3545°E)
Time: 11:43:23
(UTC+00:00)

Envisat - Pass Details

Date: 14 April 2026
Orbit: 761 x 762 km, 98.4° (Epoch: 10 May)

Event Time Altitude Azimuth Distance (km) Brightness Sun altitude
Rises 23:36:58 0° 19° (NNE) 3,239 7.6 -19.2°
Reaches altitude 10° 23:39:24 10° 26° (NNE) 2,309 6.7 -19.0°
Maximum altitude 23:44:14 42° 98° (E) 1,077 4.0 -18.6°
Enters shadow 23:48:00 16° 164° (SSE) 1,926 4.7 -18.2°
